Regional Weather Roundup
Issued by NWS Goodland, KS

Home | Current Version | Previous Version | Graphics & Text | Print | Product List | Glossary On
Versions: 1 2 3 4 5 6 7 8 9 10 11 12 13 14 15 16 17 18 19 20 21 22 23 24 25 26 27 28 29 30 31 32 33 34 35 36 37 38 39 40 41 42 43 44 45 46 47 48 49 50
000
ASUS43 KGLD 030659
RWRGLD

GOODLAND FORECAST AREA HOURLY WEATHER ROUNDUP
NATIONAL WEATHER SERVICE GOODLAND KS
100 AM MDT TUE MAY 03 2016

...OFFICIAL OBSERVATIONS...

CITY           SKY/WX    TMP DP  RH WIND       PRES   REMARKS
GOODLAND KS    PTCLDY    47  34  60 W9        30.03F
HILL CITY KS   CLEAR     46  38  73 NW3       30.03F
IMPERIAL NEB   CLOUDY    45  41  86 SE5       30.04F
MCCOOK NEB     LGT RAIN  48  43  82 N16       30.06R
AKRON CO       CLOUDY    47  33  58 N21G33    30.09R
BURLINGTON CO  MOCLDY    43  33  68 W7        30.08F
LIMON CO       CLOUDY    34  30  85 W9        30.12S
$$

...UNOFFICIAL OBSERVATIONS...

CITY           SKY/WX    TMP DP  RH WIND       PRES   REMARKS
COLBY KS       CLOUDY    46  43  87 S6        30.04S
LENORA KS        N/A     45  32  60 MISG        N/A
NORTON KS      CLEAR     48  36  61 SE5       30.02S
SHARON SPRINGS   N/A     45  38  76 CALM        N/A
TRIBUNE KS     CLOUDY    45  36  70 SW9       30.09F
KIT CARSON CO    N/A     40  34  80 MISG        N/A
$$




USA.gov is the U.S. government's official web portal to all federal, state and local government web resources and services.